Tracking 27428 objects as of 31-May-2023
HD Live streaming from Space Station
objects crossing your sky now

COSMOS 1806

Track COSMOS 1806 now!
COSMOS 1806 is classified as:


NORAD ID: 17213
Int'l Code: 1986-098A
Perigee: 7,723.1 km
Apogee: 32,658.4 km
Inclination: 68.6 °
Period: 718.0 minutes
Semi major axis: 26561 km
RCS: 14.9345 m2 (large)
Launch date: December 12, 1986
Source: Commonwealth of Independent States (former USSR) (CIS)
Launch site: PLESETSK MISSILE AND SPACE COMPLEX (PKMTR)
Your satellite tracking list
Your tracking list is empty




NASA's NSSDC Master Catalog

Two Line Element Set (TLE):
1 17213U 86098A   23149.73332360  .00000176  00000-0  00000+0 0  9994
2 17213  68.6358 189.3756 4693851 108.2693 305.3227  2.00547931266991
Source of the keplerian elements: AFSPC